Snowfall_Accumulation
0.2 0.2 0.2 0.2 0.2 0.1 0.0 0.0 0.0 0.0 0.0 0.0 0.0 0.0 0.0 0.0 0.0 0.0 0.0 0.0 0.0 0.0
0.4 0.5 0.3 0.1 0.1 0.1 0.0 0.0 0.0 0.0 0.0 0.0 0.0 0.0 0.0 0.0 0.0 0.0 0.0 0.0 0.0 0.0
1.0 0.9 0.8 0.3 0.2 0.1 0.1 0.0 0.0 0.0 0.0 0.0 0.0 0.0 0.0 0.0 0.0 0.0 0.0 0.0 0.0 0.0
1.4 1.7 1.1 1.8 0.4 0.2 0.0 0.0 0.0 0.0 0.0 0.0 0.0 0.0 0.0 0.0 0.0 0.0 0.0 0.0 0.0 0.0
2.1 1.8 2.5 1.7 3.0 0.5 0.3 0.0 0.0 0.0 0.0 0.0 0.0 0.0 0.0 0.0 0.0 0.0 0.0 0.0 0.0 0.0
2.6 2.4 2.8 2.7 1.8 4.2 3.3 0.4 0.5 0.0 0.0 0.0 0.0 0.0 0.0 0.0 0.0 0.0 0.0 0.0 0.0 0.0
2.3 3.2 2.6 2.6 2.7 2.6 5.5 1.7 1.3 0.2 0.1 0.0 0.0 0.0 0.0 0.0 0.0 0.0 0.0 0.0 0.0 0.0
0.2 1.9 2.5 2.5 2.9 2.7 2.6 5.9 3.7 2.1 1.1 0.1 0.0 0.0 0.0 0.0 0.0 0.0 0.0 0.0 0.0 0.0
0.0 0.3 1.4 2.1 2.8 2.7 2.9 2.6 5.2 3.6 3.6 2.8 0.7 0.1 0.0 0.0 0.0 0.0 0.0 0.0 0.0 0.0
0.0 0.0 0.1 0.8 1.8 3.3 4.1 3.1 2.8 4.7 3.9 3.8 1.1 0.1 0.0 0.0 0.0 0.0 0.0 0.0 0.0 0.0
0.0 0.0 0.0 0.1 0.6 1.4 3.3 4.2 3.2 3.0 4.2 4.6 2.6 0.3 0.0 0.0 0.0 0.0 0.0 0.0 0.0 0.0
0.0 0.1 0.0 0.0 0.2 0.3 1.6 2.1 3.5 2.5 1.6 4.3 3.8 0.7 0.0 0.0 0.0 0.0 0.0 0.0 0.0 0.0
0.0 0.1 0.1 0.0 0.0 0.2 0.7 1.2 1.4 2.3 2.0 2.9 3.2 1.7 0.0 0.0 0.0 0.0 0.0 0.0 0.0 0.0
0.0 0.1 0.0 0.0 0.0 0.1 0.3 0.5 0.7 1.0 1.2 2.2 2.3 1.9 0.3 0.0 0.0 0.0 0.0 0.0 0.0 0.0